Regional Weather Roundup
Issued by NWS

Home | Current Version | Previous Version | Text Only | Print | Product List | Glossary On
Versions: 1 2 3 4 5 6 7 8 9 10 11 12 13 14 15 16 17 18 19 20 21 22 23 24 25 26 27 28 29 30 31 32 33 34 35 36 37 38 39 40 41 42 43 44 45 46 47 48 49 50
000
ASUS43 KIND 241209
RWRIN

WEATHER ROUNDUP FOR INDIANA
NATIONAL WEATHER SERVICE INDIANAPOLIS IN
700 AM EST TUE JAN 24 2017

NOTE: "FAIR" INDICATES FEW OR NO CLOUDS BELOW 12,000 FEET WITH NO
SIGNIFICANT WEATHER AND/OR OBSTRUCTIONS TO VISIBILITY.

* - STATION DOES NOT REPORT WEATHER SUCH AS PRECIPITATION OR FOG.

+ - STATION NOT QUALITY CONTROLLED BY THE NATIONAL WEATHER SERVICE.
    USE DATA WITH CAUTION...ESPECIALLY DEWPOINT AND RELATIVE
    HUMIDITY OBSERVATIONS.

INZ001>003-010>013-019-020-241300-
NORTHWEST INDIANA

CITY           SKY/WX    TMP DP  RH WIND       PRES   REMARKS
GARY /AIRPORT/ CLOUDY    39  34  81 NW7       29.86R
KNOX *+        CLOUDY    36  25  64 NW5       29.83R
LA PORTE +     CLOUDY    37  34  92 NW5       29.84R
6HR MIN TEMP:  37; 6HR MAX TEMP:  38;

MICHIGAN CITY+ CLOUDY    36  36 100 NW7       29.84R
MONTICELLO +   CLOUDY    38  35  89 NW8       29.84R
6HR MIN TEMP:  38; 6HR MAX TEMP:  38;

RENSSELAER +   CLOUDY    37  36  93 W6        29.86R
VALPARAISO     CLOUDY    39  35  86 NW6       29.85R
6HR MIN TEMP:  39; 6HR MAX TEMP:  39;


$$

LMZ046-743>745-241300-
SOUTHERN LAKE MICHIGAN

STATION/POSITION TIME  TEMP    WIND        PRES    WAVE
                       AIR SEA DIR/SP/G            HT
                 (UTC) (F)     (DEG/KT/KT) (MB)    (FT)
BURNS HARBOR     1140   36     320/  6/  8 1011.5R
MICHIGAN CITY    1110   36     280/ 14/ 14   N/A

$$

INZ004-005-014>016-021>024-241300-
NORTH CENTRAL INDIANA

CITY           SKY/WX    TMP DP  RH WIND       PRES   REMARKS
ELKHART        CLOUDY    37  36  93 NW7       29.81
GOSHEN         CLOUDY    38  34  85 NW8       29.80R
6HR MIN TEMP:  38; 6HR MAX TEMP:  39;

LOGANSPORT +   CLOUDY    37  32  81 NW6       29.85R
PERU/GRISSOM   CLOUDY    38  38 100 NW10      29.81R
6HR MIN TEMP:  38; 6HR MAX TEMP:  39;

ROCHESTER +    CLOUDY    39  36  87 W6        29.83R
SOUTH BEND     CLOUDY    37  35  92 NW8       29.82R
6HR MIN TEMP:  37; 6HR MAX TEMP:  37;

WARSAW +       CLOUDY    36  32  87 W6        29.81R

$$

INZ006>009-017-018-025>027-241300-
NORTHEAST INDIANA

CITY           SKY/WX    TMP DP  RH WIND       PRES   REMARKS
ANGOLA *+      CLOUDY    37  27  65 NW7       29.76R
AUBURN +       CLOUDY    37  36  93 NW10G16   29.78R FOG
FORT WAYNE     DRIZZLE   40  37  89 W7        29.79R FOG
6HR MIN TEMP:  40; 6HR MAX TEMP:  41; 6HR PCP: TRACE;

HUNTINGTON +   CLOUDY    38  37  95 NW7       29.80R FOG
6HR MIN TEMP:  38; 6HR MAX TEMP:  39;

KENDALLVILLE + CLOUDY    38  38 100 NW6       29.78R FOG

$$

INZ028-029-035-036-043>045-051>053-241300-
WEST CENTRAL INDIANA

CITY           SKY/WX    TMP DP  RH WIND       PRES   REMARKS
CRAWFORDSVL +  CLOUDY    37  37 100 NW6       29.86R
6HR MIN TEMP:  37; 6HR MAX TEMP:  37;

GREENCASTLE +  CLOUDY    37  34  87 CALM      29.87R
LAFAYETTE      CLOUDY    38  35  89 NW7       29.85R
6HR MIN TEMP:  38; 6HR MAX TEMP:  40;

TERRE HAUTE    CLOUDY    40  33  76 NW10      29.89R
6HR MIN TEMP:  40; 6HR MAX TEMP:  41;


$$

INZ030>032-037>040-046>048-054>057-064-065-241300-
CENTRAL INDIANA

CITY           SKY/WX    TMP DP  RH WIND       PRES   REMARKS
CP ATTERBURY + CLOUDY    39  36  87 W5        29.85R
COLUMBUS       CLOUDY    39  37  93 NW8       29.85
FISHERS *+     CLOUDY    37  37 100 NW6       29.83
FRANKFORT +    CLOUDY    40  35  80 N10       29.85S
6HR MIN TEMP:  40; 6HR MAX TEMP:  41;

GREENWOOD *+   CLOUDY    40  37  86 NW5       29.84R
6HR MIN TEMP:  40; 6HR MAX TEMP:  41;

INDIANAPOLIS   CLOUDY    39  33  79 NW12      29.84R
6HR MIN TEMP:  39; 6HR MAX TEMP:  40;

-EAGLE CREEK   CLOUDY    40  33  76 NW8       29.83R
6HR MIN TEMP:  40; 6HR MAX TEMP:  40;

KOKOMO +       CLOUDY    38  36  92 NW8       29.83R
6HR MIN TEMP:  38; 6HR MAX TEMP:  39;

MARION +       CLOUDY    37  36  93 NW12      29.82R
MT COMFORT *+  CLOUDY    37  36  93 NW12      29.82S
SHELBYVILLE    CLOUDY    41  36  82 NW10      29.82R
6HR MIN TEMP:  40; 6HR MAX TEMP:  41;

ZIONSVILLE +   CLOUDY    37  33  85 N12       29.83S
6HR MIN TEMP:  37; 6HR MAX TEMP:  38;


$$

INZ033-034-041-042-049-050-058-059-241300-
EAST CENTRAL INDIANA

CITY           SKY/WX    TMP DP  RH WIND       PRES   REMARKS
MUNCIE         CLOUDY    40  37  89 NW14      29.80R FOG
6HR MIN TEMP:  40; 6HR MAX TEMP:  41;


$$

INZ060-061-067>069-081>083-085>088-241300-
SOUTHWEST INDIANA

CITY           SKY/WX    TMP DP  RH WIND       PRES   REMARKS
EVANSVILLE     CLOUDY    41  33  73 CALM      29.91R
6HR MIN TEMP:  41; 6HR MAX TEMP:  42;

HUNTINGBURG *+ CLOUDY    40  34  79 NW6       29.90R
6HR MIN TEMP:  39; 6HR MAX TEMP:  40;

WASHINGTON +   CLOUDY    40  33  77 NW5       29.89R
6HR MIN TEMP:  39; 6HR MAX TEMP:  40;


$$

INZ062-063-066-070>080-084-089>092-241300-
SOUTH CENTRAL AND SOUTHEAST INDIANA

CITY           SKY/WX    TMP DP  RH WIND       PRES   REMARKS
BEDFORD +      CLOUDY    39  32  75 NW3       29.86
BLOOMINGTON    CLOUDY    40  33  76 NW5       29.86R
6HR MIN TEMP:  39; 6HR MAX TEMP:  40;

MADISON *+     CLOUDY    39  37  93 W6        29.86R
NORTH VERNON + CLOUDY   N/A N/A N/A NW8       29.84R
SEYMOUR +      CLOUDY    41  36  81 W7        29.86R

$$




USA.gov is the U.S. government's official web portal to all federal, state and local government web resources and services.